| time (UTC) | temp C | wind direction | speed KPH | gust KPH | rain 1hr cm | rain 24hr cm | rain mn cm | humidity % | barometer mb |
| 20260506123917 | 9 | 43 | 1.6 | 1.6 | 0.18 | 0.36 | 0.36 | 99 | 1006.1 |
| 20260506123414 | 9 | 43 | 1.6 | 1.6 | 0.18 | 0.36 | 0.36 | 99 | 1006.1 |
| 20260506122912 | 9 | 43 | 0.0 | 0.0 | 0.30 | 0.36 | 0.36 | 99 | 1006.3 |
| 20260506122408 | 9 | 43 | 0.0 | 0.0 | 0.13 | 0.33 | 0.33 | 99 | 1006.1 |
| 20260506121907 | 9 | 43 | 0.0 | 0.0 | 0.00 | 0.30 | 0.30 | 99 | 1006.0 |
| 20260506121403 | 9 | 43 | 0.0 | 0.0 | 0.00 | 0.30 | 0.30 | 99 | 1005.9 |
| 20260506120900 | 9 | 44 | 0.0 | 0.0 | 0.18 | 0.30 | 0.30 | 99 | 1006.0 |
| 20260506120358 | 9 | 44 | 0.0 | 0.0 | 0.18 | 0.30 | 0.30 | 99 | 1006.0 |
| 20260506115855 | 9 | 44 | 0.0 | 0.0 | 0.00 | 0.28 | 0.28 | 99 | 1006.2 |
| 20260506115353 | 9 | 43 | 0.0 | 1.6 | 0.00 | 0.28 | 0.28 | 99 | 1006.1 |
| 20260506114851 | 9 | 43 | 0.0 | 0.0 | 0.36 | 0.25 | 0.25 | 99 | 1006.4 |
| 20260506114348 | 9 | 43 | 0.0 | 0.0 | 0.36 | 0.25 | 0.25 | 99 | 1006.4 |
| 20260506113847 | 9 | 43 | 0.0 | 0.0 | 0.36 | 0.25 | 0.25 | 99 | 1006.5 |
| 20260506113344 | 9 | 43 | 0.0 | 0.0 | 0.30 | 0.23 | 0.23 | 99 | 1006.7 |
| 20260506112840 | 8 | 43 | 0.0 | 0.0 | 0.30 | 0.20 | 0.20 | 99 | 1007.0 |
| 20260506112338 | 8 | 44 | 0.0 | 0.0 | 0.18 | 0.18 | 0.18 | 99 | 1006.8 |
| 20260506111835 | 8 | 44 | 0.0 | 0.0 | 0.13 | 0.15 | 0.15 | 99 | 1006.9 |
| 20260506111333 | 8 | 44 | 0.0 | 0.0 | 0.13 | 0.15 | 0.15 | 99 | 1006.8 |
| 20260506110831 | 8 | 44 | 0.0 | 0.0 | 0.00 | 0.13 | 0.13 | 99 | 1006.9 |
| 20260506110327 | 8 | 44 | 0.0 | 0.0 | 0.00 | 0.13 | 0.13 | 99 | 1006.9 |
| 20260506105824 | 8 | 44 | 0.0 | 0.0 | 0.18 | 0.13 | 0.13 | 98 | 1006.9 |
| 20260506105320 | 8 | 44 | 0.0 | 0.0 | 0.18 | 0.13 | 0.13 | 98 | 1006.9 |
| 20260506104818 | 8 | 44 | 0.0 | 0.0 | 0.00 | 0.10 | 0.10 | 98 | 1006.8 |
| 20260506104316 | 8 | 44 | 0.0 | 0.0 | 0.00 | 0.10 | 0.10 | 98 | 1006.7 |
| 20260506103813 | 8 | 44 | 0.0 | 0.0 | 0.00 | 0.10 | 0.10 | 98 | 1006.9 |
| 20260506103311 | 8 | 44 | 0.0 | 0.0 | 0.13 | 0.10 | 0.10 | 98 | 1006.7 |
| 20260506102808 | 8 | 44 | 1.6 | 1.6 | 0.13 | 0.10 | 0.10 | 98 | 1006.7 |
| 20260506102306 | 8 | 46 | 1.6 | 1.6 | 0.00 | 0.08 | 0.08 | 98 | 1006.7 |
| 20260506101803 | 8 | 45 | 3.2 | 3.2 | 0.00 | 0.08 | 0.08 | 98 | 1006.5 |
| 20260506101259 | 8 | 46 | 3.2 | 3.2 | 0.00 | 0.08 | 0.08 | 98 | 1006.4 |
| 20260506100757 | 8 | 26 | 1.6 | 1.6 | 0.00 | 0.08 | 0.08 | 98 | 1006.5 |
| 20260506100255 | 8 | 25 | 3.2 | 3.2 | 0.00 | 0.08 | 0.08 | 98 | 1006.7 |
| 20260506095753 | 8 | 39 | 3.2 | 3.2 | 0.00 | 0.08 | 0.08 | 98 | 1006.5 |
| 20260506095250 | 8 | 18 | 3.2 | 3.2 | 0.00 | 0.08 | 0.08 | 98 | 1006.5 |
| 20260506094746 | 8 | 100 | 1.6 | 1.6 | 0.18 | 0.08 | 0.08 | 98 | 1006.3 |
| 20260506094245 | 8 | 105 | 1.6 | 1.6 | 0.18 | 0.08 | 0.08 | 98 | 1006.3 |
| 20260506093743 | 8 | 145 | 0.0 | 0.0 | 0.18 | 0.08 | 0.08 | 98 | 1006.3 |
| 20260506093240 | 8 | 145 | 0.0 | 0.0 | 0.00 | 0.05 | 0.05 | 98 | 1006.5 |
| 20260506092737 | 8 | 145 | 0.0 | 0.0 | 0.13 | 0.05 | 0.05 | 98 | 1006.2 |
| 20260506092235 | 8 | 145 | 0.0 | 0.0 | 0.13 | 0.05 | 0.05 | 97 | 1006.4 |
| 20260506091732 | 8 | 145 | 1.6 | 1.6 | 0.00 | 0.03 | 0.03 | 97 | 1006.4 |
| 20260506091230 | 8 | 145 | 0.0 | 0.0 | 0.00 | 0.03 | 0.03 | 97 | 1006.3 |
| 20260506090728 | 8 | 145 | 0.0 | 0.0 | 0.18 | 0.03 | 0.03 | 97 | 1006.3 |
| 20260506090224 | 8 | 145 | 0.0 | 0.0 | 0.18 | 0.03 | 0.03 | 97 | 1006.7 |
| 20260506085721 | 8 | 145 | 0.0 | 0.0 | 0.18 | 0.03 | 0.03 | 97 | 1006.7 |
| 20260506085217 | 8 | 145 | 0.0 | 0.0 | 0.00 | 0.00 | 0.00 | 97 | 1007.0 |
| 20260506084714 | 8 | 146 | 0.0 | 0.0 | 0.00 | 0.00 | 0.00 | 97 | 1006.9 |
| 20260506084210 | 8 | 203 | 0.0 | 0.0 | 0.00 | 0.00 | 0.00 | 97 | 1007.1 |
| 20260506083707 | 8 | 215 | 1.6 | 1.6 | 0.00 | 0.00 | 0.00 | 97 | 1007.0 |
| 20260506083205 | 8 | 92 | 0.0 | 1.6 | 0.00 | 0.00 | 0.00 | 96 | 1006.9 |
| 20260506082702 | 8 | 92 | 0.0 | 0.0 | 0.00 | 0.00 | 0.00 | 96 | 1007.1 |
| 20260506082202 | 8 | 92 | 0.0 | 0.0 | 0.00 | 0.00 | 0.00 | 96 | 1007.0 |
| 20260506081701 | 8 | 92 | 0.0 | 0.0 | 0.00 | 0.00 | 0.00 | 96 | 1006.9 |
| 20260506081158 | 8 | 92 | 0.0 | 0.0 | 0.00 | 0.00 | 0.00 | 96 | 1006.8 |
| 20260506080655 | 8 | 92 | 0.0 | 0.0 | 0.00 | 0.00 | 0.00 | 96 | 1006.5 |
| 20260506080151 | 8 | 87 | 1.6 | 1.6 | 0.00 | 0.00 | 0.00 | 96 | 1006.8 |
| 20260506073136 | 8 | 35 | 1.6 | 3.2 | 0.00 | 0.00 | 0.00 | 96 | 1007.1 |
| 20260506072632 | 8 | 15 | 3.2 | 3.2 | 0.00 | 0.00 | 0.00 | 96 | 1007.0 |
| 20260506072130 | 8 | 55 | 3.2 | 3.2 | 0.00 | 0.00 | 0.00 | 96 | 1007.0 |
| 20260506071628 | 8 | 58 | 1.6 | 1.6 | 0.00 | 0.00 | 0.00 | 96 | 1007.1 |
| 20260506071125 | 8 | 33 | 1.6 | 3.2 | 0.00 | 0.00 | 0.00 | 96 | 1007.0 |
| 20260506070622 | 8 | 45 | 1.6 | 1.6 | 0.00 | 0.00 | 0.00 | 96 | 1007.4 |
| 20260506070119 | 8 | 59 | 1.6 | 1.6 | 0.00 | 0.00 | 0.00 | 96 | 1007.2 |
| 20260506062056 | 9 | 55 | 1.6 | 1.6 | 0.00 | 0.00 | 0.00 | 95 | 1007.8 |
| 20260506061552 | 9 | 55 | 0.0 | 0.0 | 0.00 | 0.00 | 0.00 | 95 | 1007.9 |
| 20260506061050 | 9 | 55 | 1.6 | 1.6 | 0.00 | 0.00 | 0.00 | 94 | 1007.8 |
| 20260506060548 | 9 | 55 | 1.6 | 1.6 | 0.00 | 0.00 | 0.00 | 94 | 1007.9 |
| 20260506051017 | 8 | 56 | 0.0 | 0.0 | 0.00 | 0.00 | 0.00 | 94 | 1008.7 |
| 20260506050515 | 8 | 56 | 0.0 | 0.0 | 0.00 | 0.00 | 0.00 | 94 | 1008.6 |
| 20260506045006 | 8 | 56 | 0.0 | 0.0 | 0.00 | 0.00 | 0.00 | 94 | 1008.9 |
| 20260506044504 | 8 | 56 | 1.6 | 1.6 | 0.00 | 0.00 | 0.00 | 94 | 1008.9 |
| 20260506044000 | 8 | 56 | 0.0 | 0.0 | 0.00 | 0.00 | 0.00 | 94 | 1009.1 |
| 20260506043457 | 8 | 56 | 0.0 | 1.6 | 0.00 | 0.00 | 0.00 | 93 | 1009.0 |
| 20260506042955 | 9 | 56 | 0.0 | 0.0 | 0.00 | 0.00 | 0.00 | 91 | 1009.0 |
| 20260506042454 | 10 | 56 | 0.0 | 0.0 | 0.00 | 0.00 | 0.00 | 90 | 1008.9 |
| 20260506041951 | 10 | 56 | 0.0 | 0.0 | 0.00 | 0.00 | 0.00 | 89 | 1008.8 |
| 20260506041450 | 10 | 56 | 0.0 | 0.0 | 0.00 | 0.00 | 0.00 | 89 | 1008.9 |
| 20260506040947 | 10 | 56 | 0.0 | 0.0 | 0.00 | 0.00 | 0.00 | 89 | 1008.8 |
| 20260506040444 | 10 | 55 | 0.0 | 0.0 | 0.00 | 0.00 | 0.00 | 88 | 1008.9 |
| 20260506035939 | 10 | 57 | 1.6 | 1.6 | 0.00 | 0.66 | 0.66 | 88 | 1009.0 |
| 20260506035437 | 10 | 60 | 0.0 | 1.6 | 0.00 | 0.66 | 0.66 | 88 | 1008.6 |
| 20260506034934 | 10 | 45 | 0.0 | 1.6 | 0.00 | 0.66 | 0.66 | 89 | 1009.0 |
| 20260506034431 | 10 | 50 | 1.6 | 3.2 | 0.00 | 0.66 | 0.66 | 90 | 1009.1 |
| 20260506033928 | 10 | 74 | 0.0 | 0.0 | 0.00 | 0.66 | 0.66 | 90 | 1009.3 |
| 20260506033425 | 10 | 77 | 0.0 | 1.6 | 0.00 | 0.66 | 0.66 | 90 | 1009.3 |
| 20260506032922 | 10 | 31 | 1.6 | 1.6 | 0.00 | 0.66 | 0.66 | 90 | 1009.4 |
| 20260506032419 | 10 | 62 | 0.0 | 0.0 | 0.00 | 0.66 | 0.66 | 90 | 1009.7 |
| 20260506031916 | 10 | 61 | 0.0 | 0.0 | 0.00 | 0.66 | 0.66 | 89 | 1009.3 |
| 20260506031414 | 10 | 69 | 1.6 | 1.6 | 0.00 | 0.66 | 0.66 | 89 | 1009.3 |
| 20260506030911 | 10 | 70 | 0.0 | 0.0 | 0.00 | 0.66 | 0.66 | 88 | 1009.1 |
| 20260506030409 | 11 | 27 | 3.2 | 4.8 | 0.00 | 0.66 | 0.66 | 88 | 1009.3 |
| 20260506025906 | 11 | 31 | 3.2 | 4.8 | 0.00 | 0.66 | 0.66 | 88 | 1009.5 |
| 20260506025403 | 11 | 39 | 1.6 | 3.2 | 0.00 | 0.66 | 0.66 | 88 | 1009.4 |
| 20260506024859 | 11 | 8 | 3.2 | 4.8 | 0.00 | 0.66 | 0.66 | 88 | 1009.3 |
| 20260506024356 | 11 | 33 | 1.6 | 3.2 | 0.00 | 0.66 | 0.66 | 88 | 1009.3 |
| 20260506023851 | 11 | 40 | 3.2 | 3.2 | 0.00 | 0.66 | 0.66 | 88 | 1009.4 |
| 20260506023349 | 11 | 16 | 4.8 | 4.8 | 0.00 | 0.66 | 0.66 | 87 | 1009.6 |
| 20260506022845 | 11 | 46 | 1.6 | 1.6 | 0.00 | 0.66 | 0.66 | 87 | 1009.7 |
| 20260506022344 | 11 | 23 | 3.2 | 4.8 | 0.00 | 0.66 | 0.66 | 87 | 1009.5 |
| 20260506021841 | 11 | 38 | 1.6 | 1.6 | 0.00 | 0.66 | 0.66 | 87 | 1009.9 |
| 20260506021337 | 11 | 20 | 1.6 | 1.6 | 0.00 | 0.66 | 0.66 | 87 | 1009.7 |
| 20260506020834 | 11 | 38 | 1.6 | 1.6 | 0.00 | 0.66 | 0.66 | 86 | 1009.8 |
| 20260506020332 | 11 | 39 | 4.8 | 4.8 | 0.00 | 0.66 | 0.66 | 85 | 1009.6 |
| 20260506015829 | 11 | 28 | 1.6 | 1.6 | 0.00 | 0.66 | 0.66 | 85 | 1009.7 |
| 20260506015327 | 11 | 15 | 3.2 | 3.2 | 0.00 | 0.66 | 0.66 | 85 | 1009.1 |
| 20260506014823 | 11 | 34 | 6.4 | 6.4 | 0.00 | 0.66 | 0.66 | 84 | 1009.1 |
| 20260506014320 | 12 | 356 | 6.4 | 9.7 | 0.00 | 0.66 | 0.66 | 83 | 1009.0 |
| 20260506013817 | 12 | 19 | 8.0 | 9.7 | 0.00 | 0.66 | 0.66 | 82 | 1008.9 |
| 20260506013314 | 12 | 21 | 14.5 | 16.1 | 0.00 | 0.66 | 0.66 | 81 | 1009.0 |
| 20260506012811 | 12 | 63 | 4.8 | 4.8 | 0.00 | 0.66 | 0.66 | 84 | 1008.7 |
| 20260506012308 | 13 | 22 | 8.0 | 11.3 | 0.00 | 0.66 | 0.66 | 85 | 1008.6 |
| 20260506011805 | 13 | 28 | 8.0 | 11.3 | 0.00 | 0.66 | 0.66 | 86 | 1008.4 |
| 20260506011301 | 14 | 8 | 11.3 | 12.9 | 0.00 | 0.66 | 0.66 | 86 | 1008.1 |
| 20260506010759 | 14 | 347 | 9.7 | 14.5 | 0.00 | 0.66 | 0.66 | 88 | 1008.1 |
| 20260506010257 | 14 | 39 | 8.0 | 11.3 | 0.00 | 0.66 | 0.66 | 88 | 1008.0 |
| 20260506005754 | 15 | 322 | 9.7 | 11.3 | 0.00 | 0.66 | 0.66 | 88 | 1008.1 |
| 20260506005250 | 15 | 357 | 9.7 | 12.9 | 0.00 | 0.66 | 0.66 | 87 | 1008.1 |
| 20260506004746 | 15 | 24 | 9.7 | 12.9 | 0.00 | 0.66 | 0.66 | 87 | 1008.1 |
| 20260506004244 | 15 | 268 | 6.4 | 11.3 | 0.00 | 0.66 | 0.66 | 86 | 1008.0 |
| 20260506003740 | 15 | 342 | 4.8 | 4.8 | 0.00 | 0.66 | 0.66 | 85 | 1008.0 |
| 20260506003236 | 15 | 331 | 8.0 | 9.7 | 0.00 | 0.66 | 0.66 | 85 | 1007.9 |
| 20260506002733 | 15 | 265 | 8.0 | 9.7 | 0.00 | 0.66 | 0.66 | 84 | 1007.8 |
| 20260506002229 | 15 | 310 | 3.2 | 3.2 | 0.00 | 0.66 | 0.66 | 84 | 1007.7 |
| 20260506001725 | 15 | 308 | 1.6 | 1.6 | 0.00 | 0.66 | 0.66 | 84 | 1007.5 |
| 20260506001223 | 15 | 321 | 4.8 | 4.8 | 0.00 | 0.66 | 0.66 | 85 | 1007.5 |
| 20260506000719 | 15 | 330 | 4.8 | 4.8 | 0.00 | 0.66 | 0.66 | 88 | 1007.3 |
| 20260506000219 | 15 | 359 | 6.4 | 6.4 | 0.00 | 0.66 | 0.66 | 89 | 1007.5 |
| 20260505235714 | 15 | 111 | 0.0 | 0.0 | 0.00 | 0.66 | 0.66 | 90 | 1007.3 |
| 20260505235212 | 15 | 111 | 0.0 | 0.0 | 0.00 | 0.66 | 0.66 | 90 | 1007.1 |
| 20260505234708 | 15 | 111 | 0.0 | 0.0 | 0.00 | 0.66 | 0.66 | 90 | 1007.1 |
| 20260505234206 | 15 | 135 | 1.6 | 1.6 | 0.00 | 0.66 | 0.66 | 90 | 1007.1 |
| 20260505233702 | 15 | 135 | 1.6 | 1.6 | 0.00 | 0.66 | 0.66 | 90 | 1007.0 |
| 20260505233200 | 15 | 135 | 3.2 | 3.2 | 0.00 | 0.66 | 0.66 | 90 | 1006.9 |
| 20260505232657 | 15 | 134 | 1.6 | 3.2 | 0.00 | 0.66 | 0.66 | 91 | 1006.9 |
| 20260505232155 | 15 | 134 | 3.2 | 3.2 | 0.00 | 0.66 | 0.66 | 91 | 1006.9 |
| 20260505231651 | 15 | 134 | 3.2 | 3.2 | 0.00 | 0.66 | 0.66 | 91 | 1006.9 |
| 20260505231150 | 16 | 134 | 0.0 | 1.6 | 0.00 | 0.66 | 0.66 | 90 | 1006.9 |
| 20260505230648 | 16 | 141 | 3.2 | 3.2 | 0.00 | 0.66 | 0.66 | 89 | 1006.8 |
| 20260505230144 | 16 | 162 | 0.0 | 0.0 | 0.00 | 0.66 | 0.66 | 87 | 1006.9 |
| 20260505225635 | 16 | 183 | 3.2 | 4.8 | 0.00 | 0.66 | 0.66 | 84 | 1006.7 |
| 20260505225131 | 16 | 190 | 0.0 | 1.6 | 0.13 | 0.66 | 0.66 | 82 | 1006.9 |
| 20260505224628 | 17 | 247 | 3.2 | 4.8 | 0.13 | 0.66 | 0.66 | 82 | 1007.2 |
| 20260505224126 | 17 | 160 | 1.6 | 1.6 | 0.00 | 0.64 | 0.64 | 82 | 1007.4 |
| 20260505223623 | 17 | 158 | 0.0 | 1.6 | 0.00 | 0.64 | 0.64 | 82 | 1007.1 |
| 20260505223119 | 17 | 133 | 1.6 | 1.6 | 0.00 | 0.64 | 0.64 | 82 | 1006.9 |
| 20260505222615 | 17 | 139 | 6.4 | 11.3 | 0.00 | 0.64 | 0.64 | 82 | 1007.0 |
| 20260505222112 | 17 | 142 | 6.4 | 6.4 | 0.00 | 0.64 | 0.64 | 79 | 1006.7 |
| 20260505221609 | 17 | 168 | 1.6 | 1.6 | 0.00 | 0.64 | 0.64 | 78 | 1006.4 |
| 20260505221105 | 17 | 169 | 1.6 | 1.6 | 0.00 | 0.64 | 0.64 | 76 | 1006.3 |
| 20260505220602 | 18 | 151 | 3.2 | 3.2 | 0.00 | 0.64 | 0.64 | 75 | 1006.4 |
| 20260505220100 | 18 | 150 | 1.6 | 1.6 | 0.00 | 0.64 | 0.64 | 76 | 1006.4 |
| 20260505215557 | 18 | 171 | 1.6 | 3.2 | 0.00 | 0.64 | 0.64 | 78 | 1006.3 |
| 20260505215055 | 18 | 205 | 4.8 | 4.8 | 0.00 | 0.64 | 0.64 | 75 | 1006.2 |
| 20260505214553 | 18 | 243 | 4.8 | 4.8 | 0.00 | 0.64 | 0.64 | 75 | 1006.3 |
| 20260505214049 | 18 | 179 | 1.6 | 3.2 | 0.00 | 0.64 | 0.64 | 75 | 1006.0 |
| 20260505213547 | 18 | 149 | 1.6 | 1.6 | 0.00 | 0.64 | 0.64 | 75 | 1006.0 |
| 20260505213043 | 19 | 143 | 1.6 | 3.2 | 0.00 | 0.64 | 0.64 | 76 | 1006.0 |
| 20260505212540 | 18 | 200 | 0.0 | 1.6 | 0.00 | 0.64 | 0.64 | 77 | 1005.7 |
| 20260505212037 | 18 | 172 | 1.6 | 1.6 | 0.00 | 0.64 | 0.64 | 77 | 1005.7 |
| 20260505211534 | 18 | 134 | 3.2 | 3.2 | 0.00 | 0.64 | 0.64 | 78 | 1005.7 |
| 20260505211031 | 17 | 166 | 0.0 | 0.0 | 0.00 | 0.64 | 0.64 | 82 | 1005.8 |
| 20260505210528 | 17 | 166 | 0.0 | 1.6 | 0.00 | 0.64 | 0.64 | 80 | 1005.9 |
| 20260505210025 | 17 | 266 | 3.2 | 3.2 | 0.00 | 0.64 | 0.64 | 79 | 1005.7 |
| 20260505205523 | 17 | 133 | 1.6 | 3.2 | 0.00 | 0.64 | 0.64 | 81 | 1005.9 |
| 20260505205020 | 17 | 121 | 0.0 | 1.6 | 0.00 | 0.64 | 0.64 | 82 | 1005.8 |
| 20260505204518 | 16 | 155 | 0.0 | 1.6 | 0.00 | 0.64 | 0.64 | 82 | 1005.8 |
| 20260505204015 | 16 | 214 | 1.6 | 1.6 | 0.00 | 0.64 | 0.64 | 86 | 1006.0 |
| 20260505203511 | 15 | 326 | 1.6 | 3.2 | 0.00 | 0.64 | 0.64 | 84 | 1006.2 |
| 20260505203008 | 15 | 332 | 0.0 | 0.0 | 0.00 | 0.64 | 0.64 | 86 | 1006.3 |
| 20260505202504 | 15 | 332 | 0.0 | 1.6 | 0.00 | 0.64 | 0.64 | 86 | 1006.7 |
| 20260505202000 | 15 | 227 | 1.6 | 1.6 | 0.00 | 0.64 | 0.64 | 86 | 1006.8 |
| 20260505201457 | 15 | 227 | 0.0 | 0.0 | 0.18 | 0.64 | 0.64 | 88 | 1006.9 |
| 20260505200955 | 15 | 240 | 3.2 | 3.2 | 0.18 | 0.64 | 0.64 | 88 | 1007.0 |
| 20260505200453 | 15 | 215 | 1.6 | 3.2 | 0.30 | 0.64 | 0.64 | 88 | 1007.3 |
| 20260505195948 | 15 | 244 | 3.2 | 3.2 | 0.48 | 0.61 | 0.61 | 88 | 1007.2 |
| 20260505195445 | 15 | 231 | 6.4 | 6.4 | 0.30 | 0.56 | 0.56 | 87 | 1007.9 |
| 20260505194943 | 15 | 260 | 14.5 | 17.7 | 0.13 | 0.53 | 0.53 | 86 | 1007.8 |
| 20260505194440 | 15 | 247 | 9.7 | 12.9 | 0.30 | 0.51 | 0.51 | 84 | 1007.5 |
| 20260505193940 | 16 | 296 | 4.8 | 4.8 | 0.79 | 0.51 | 0.51 | 82 | 1007.3 |
| 20260505193438 | 17 | 326 | 12.9 | 14.5 | 0.48 | 0.46 | 0.46 | 73 | 1007.0 |
| 20260505192935 | 21 | 270 | 20.9 | 27.4 | 0.00 | 0.38 | 0.38 | 55 | 1006.4 |
| 20260505192433 | 21 | 229 | 4.8 | 6.4 | 0.00 | 0.38 | 0.38 | 45 | 1005.6 |
| 20260505191931 | 22 | 257 | 9.7 | 14.5 | 0.00 | 0.38 | 0.38 | 43 | 1005.3 |
| 20260505191430 | 22 | 176 | 8.0 | 12.9 | 0.00 | 0.38 | 0.38 | 43 | 1004.8 |
| 20260505190926 | 22 | 297 | 16.1 | 24.1 | 0.00 | 0.38 | 0.38 | 45 | 1004.8 |
| 20260505190421 | 22 | 216 | 6.4 | 6.4 | 0.00 | 0.38 | 0.38 | 45 | 1004.9 |
| 20260505185916 | 22 | 236 | 9.7 | 16.1 | 0.00 | 0.38 | 0.38 | 46 | 1004.7 |
| 20260505185414 | 22 | 72 | 3.2 | 4.8 | 0.00 | 0.38 | 0.38 | 48 | 1004.7 |
| 20260505184910 | 22 | 222 | 14.5 | 17.7 | 0.00 | 0.38 | 0.38 | 47 | 1004.8 |
| 20260505184407 | 22 | 222 | 4.8 | 4.8 | 0.00 | 0.38 | 0.38 | 54 | 1004.7 |
| 20260505183904 | 22 | 316 | 4.8 | 4.8 | 0.00 | 0.38 | 0.38 | 50 | 1004.7 |
| 20260505183401 | 22 | 191 | 11.3 | 14.5 | 0.00 | 0.38 | 0.38 | 48 | 1004.7 |
| 20260505182857 | 22 | 114 | 9.7 | 14.5 | 0.00 | 0.38 | 0.38 | 50 | 1004.9 |
| 20260505182354 | 22 | 215 | 4.8 | 4.8 | 0.00 | 0.38 | 0.38 | 54 | 1004.9 |
| 20260505181851 | 22 | 169 | 6.4 | 9.7 | 0.00 | 0.38 | 0.38 | 61 | 1005.0 |
| 20260505181348 | 21 | 222 | 3.2 | 4.8 | 0.00 | 0.38 | 0.38 | 68 | 1005.2 |
| 20260505180845 | 21 | 221 | 3.2 | 4.8 | 0.00 | 0.38 | 0.38 | 66 | 1005.3 |
| 20260505180341 | 20 | 175 | 3.2 | 3.2 | 0.00 | 0.38 | 0.38 | 69 | 1005.4 |
| 20260505175838 | 19 | 219 | 8.0 | 9.7 | 0.00 | 0.38 | 0.38 | 72 | 1005.8 |
| 20260505175334 | 18 | 206 | 3.2 | 6.4 | 0.00 | 0.38 | 0.38 | 77 | 1005.9 |
| 20260505174831 | 17 | 216 | 4.8 | 6.4 | 0.00 | 0.38 | 0.38 | 80 | 1005.9 |
| 20260505174328 | 16 | 105 | 3.2 | 4.8 | 1.07 | 0.38 | 0.38 | 88 | 1005.8 |
| 20260505173824 | 16 | 252 | 4.8 | 6.4 | 2.29 | 0.38 | 0.38 | 83 | 1006.1 |
| 20260505173320 | 18 | 194 | 9.7 | 11.3 | 1.19 | 0.20 | 0.20 | 68 | 1006.1 |
| 20260505172818 | 21 | 162 | 6.4 | 11.3 | 0.00 | 0.00 | 0.00 | 52 | 1006.1 |
| 20260505172316 | 21 | 254 | 4.8 | 6.4 | 0.00 | 0.00 | 0.00 | 49 | 1005.8 |
| 20260505171815 | 21 | 250 | 9.7 | 11.3 | 0.00 | 0.00 | 0.00 | 46 | 1006.0 |
| 20260505171313 | 22 | 171 | 3.2 | 3.2 | 0.00 | 0.00 | 0.00 | 46 | 1005.8 |
| 20260505170808 | 22 | 221 | 8.0 | 11.3 | 0.00 | 0.00 | 0.00 | 43 | 1005.9 |
| 20260505170306 | 22 | 228 | 9.7 | 12.9 | 0.00 | 0.00 | 0.00 | 43 | 1005.7 |
| 20260505165801 | 23 | 226 | 8.0 | 11.3 | 0.00 | 0.00 | 0.00 | 42 | 1005.7 |
| 20260505165257 | 23 | 217 | 16.1 | 17.7 | 0.00 | 0.00 | 0.00 | 40 | 1005.3 |
| 20260505164753 | 23 | 196 | 16.1 | 24.1 | 0.00 | 0.00 | 0.00 | 44 | 1005.4 |
| 20260505164250 | 23 | 220 | 14.5 | 16.1 | 0.00 | 0.00 | 0.00 | 42 | 1005.2 |
| 20260505163748 | 23 | 293 | 8.0 | 12.9 | 0.00 | 0.00 | 0.00 | 43 | 1005.4 |
| 20260505163247 | 23 | 245 | 11.3 | 14.5 | 0.00 | 0.00 | 0.00 | 43 | 1005.5 |
| 20260505162744 | 23 | 185 | 9.7 | 12.9 | 0.00 | 0.00 | 0.00 | 43 | 1005.4 |
| 20260505162241 | 23 | 289 | 14.5 | 22.5 | 0.00 | 0.00 | 0.00 | 43 | 1005.5 |
| 20260505161737 | 23 | 203 | 4.8 | 4.8 | 0.00 | 0.00 | 0.00 | 47 | 1005.9 |
| 20260505161235 | 23 | 241 | 8.0 | 11.3 | 0.00 | 0.00 | 0.00 | 44 | 1005.9 |
| 20260505160732 | 23 | 235 | 9.7 | 12.9 | 0.00 | 0.00 | 0.00 | 44 | 1005.8 |
| 20260505160230 | 23 | 238 | 6.4 | 6.4 | 0.00 | 0.00 | 0.00 | 44 | 1005.8 |
| 20260505153209 | 23 | 212 | 6.4 | 6.4 | 0.00 | 0.00 | 0.00 | 46 | 1006.3 |
| 20260505152706 | 23 | 257 | 6.4 | 9.7 | 0.00 | 0.00 | 0.00 | 46 | 1006.0 |
| 20260505152202 | 22 | 216 | 6.4 | 9.7 | 0.00 | 0.00 | 0.00 | 48 | 1005.9 |
| 20260505151657 | 23 | 325 | 9.7 | 12.9 | 0.00 | 0.00 | 0.00 | 48 | 1005.8 |
| 20260505151155 | 22 | 201 | 4.8 | 4.8 | 0.00 | 0.00 | 0.00 | 49 | 1005.9 |
| 20260505150651 | 22 | 146 | 1.6 | 3.2 | 0.00 | 0.00 | 0.00 | 48 | 1005.8 |
| 20260505150149 | 22 | 234 | 19.3 | 37.0 | 0.00 | 0.00 | 0.00 | 47 | 1005.5 |
| 20260505140622 | 20 | 210 | 12.9 | 22.5 | 0.00 | 0.00 | 0.00 | 52 | 1006.1 |
| 20260505140119 | 20 | 216 | 8.0 | 12.9 | 0.00 | 0.00 | 0.00 | 52 | 1006.1 |